User: anonymous   Login
Location: Berbisdorf
(50.7638°N, 12.9442°E)
Time: 02:35:29
(UTC+00:00)
Language:

GEOS 3 Rocket - Orbit

View from above orbital plane
View from above orbital plane
View from above satellite
View from above satellite

Ground track
Ground track

The orbit data is extracted from the following two-line orbital elements,

1 07735U 75027B   21127.56937634 -.00000142  00000-0  15429-4 0  9992
2 07735 114.9737 163.2946 0048752 225.2636 134.4470 14.24637031392490
Epoch (UTC): 07 May 2021 13:39:54
Eccentricity: 0.0048752
inclination: 114.9737°
perigee height: 774 km
apogee height: 845 km
right ascension of ascending node: 163.2946°
argument of perigee: 225.2636°
revolutions per day: 14.24637031
mean anomaly at epoch: 134.4470°
orbit number at epoch: 39249

The dashed part of the orbit path shows where the satellite is in the earth's shadow,  

DLR